Location: Newark
(43.7833°N, 1.0833°E)
Time: 09:00:18
(UTC+00:00)

ISS - Visible Passes

Search period start: 19 September 2019 00:00
Search period end: 29 September 2019 00:00
Orbit: 411 x 421 km, 51.6° (Epoch: 19 September)

Date Brightness Start Highest point End Pass type
(mag) Time Alt. Az. Time Alt. Az. Time Alt. Az.
19 Sep -1.9 18:35:36 10° S 18:37:34 15° SE 18:39:18 11° E visible
19 Sep -1.9 20:10:36 10° WSW 20:12:14 27° WSW 20:12:14 27° WSW visible
20 Sep -3.9 19:22:12 10° SW 19:25:29 65° SE 19:26:22 43° E visible
21 Sep -3.2 18:33:59 10° SSW 18:37:06 38° SE 18:40:13 10° ENE visible
21 Sep -2.1 20:10:43 10° W 20:13:13 33° NW 20:13:13 33° NW visible
22 Sep -3.1 19:22:01 10° WSW 19:25:17 53° NNW 19:26:57 25° NE visible
23 Sep -3.7 18:33:27 10° WSW 18:36:46 82° NNW 18:40:06 10° ENE visible
23 Sep -1.6 20:11:05 10° WNW 20:13:26 24° NNW 20:13:26 24° NNW visible
24 Sep -2.1 19:22:15 10° W 19:25:14 29° NNW 19:26:56 19° NNE visible
25 Sep -2.6 18:33:27 10° W 18:36:36 39° NNW 18:39:45 10° NE visible
25 Sep -1.3 20:11:22 10° NW 20:13:13 19° NNW 20:13:13 19° NNW visible
26 Sep -1.7 19:22:34 10° WNW 19:25:14 22° N 19:26:34 17° NNE visible
27 Sep -1.9 18:33:42 10° WNW 18:36:32 25° NNW 18:39:22 10° NE visible
27 Sep -1.1 20:11:21 10° NW 20:12:46 18° NNW 20:12:46 18° NNW visible
28 Sep -1.8 19:22:40 10° NW 19:25:17 20° N 19:26:02 19° NNE visible
